START_TIME,STEP,MOV.,AL01,t_acc.,AL02,t_acc.,E37,t_acc.,H21,t_acc.
1980-11-15 15:00:22.890 ,0,0,0.,24.0,0.,24.0,1.,24.0,0.,24.0
1980-11-15 15:00:46.890 ,1,1,0.,24.0,0.,24.0,0.,24.0,0.,24.0
1980-11-15 15:01:10.890 ,1,0,1.,24.0,0.,24.0,0.,24.0,0.,24.0
1980-11-15 15:01:34.890 ,2,1,0.,24.0,0.,24.0,0.,24.0,0.,24.0
1980-11-15 15:01:58.890 ,2,0,0.,24.0,0.,24.0,0.,24.0,0.,24.0
1980-11-15 15:02:22.890 ,3,1,0.,24.0,0.,24.0,1.,24.0,0.,24.0
1980-11-15 15:02:46.890 ,3,0,0.,24.0,0.,24.0,0.,24.0,0.,24.0
1980-11-15 15:03:10.890 ,4,1,0.,24.0,0.,24.0,1.,24.0,0.,24.0
1980-11-15 15:03:34.890 ,4,0,0.,24.0,0.,24.0,0.,24.0,0.,24.0
1980-11-15 15:03:58.890 ,5,1,0.,24.0,0.,24.0,0.,24.0,0.,24.0
1980-11-15 15:04:22.890 ,5,0,0.,24.0,0.,24.0,0.,24.0,0.,24.0
1980-11-15 15:04:46.890 ,6,1,0.,24.0,0.,24.0,0.,24.0,0.,24.0
1980-11-15 15:05:10.890 ,6,0,0.,24.0,0.,24.0,1.,24.0,0.,24.0
1980-11-15 15:05:34.890 ,7,1,1.,24.0,0.,24.0,1.,24.0,0.,24.0
1980-11-15 15:05:58.890 ,7,0,10.,24.0,0.,24.0,1.,24.0,0.,24.0
1980-11-15 15:06:22.890 ,7,1,12.,24.0,0.,24.0,0.,24.0,0.,24.0
1980-11-15 15:06:46.890 ,7,0,16.,24.0,0.,24.0,1.,24.0,0.,24.0
1980-11-15 15:07:10.890 ,6,1,7.,24.0,0.,24.0,1.,24.0,0.,24.0
1980-11-15 15:07:34.890 ,6,0,0.,24.0,0.,24.0,0.,24.0,0.,24.0
1980-11-15 15:07:58.890 ,5,1,0.,24.0,0.,24.0,0.,24.0,0.,24.0
1980-11-15 15:08:22.890 ,5,0,0.,24.0,0.,24.0,0.,24.0,0.,24.0
1980-11-15 15:08:46.890 ,4,1,0.,24.0,0.,24.0,1.,24.0,0.,24.0
1980-11-15 15:09:10.890 ,4,0,0.,24.0,0.,24.0,1.,24.0,0.,24.0
1980-11-15 15:09:34.890 ,3,1,0.,24.0,0.,24.0,0.,24.0,0.,24.0
1980-11-15 15:09:58.890 ,3,0,0.,24.0,0.,24.0,0.,24.0,0.,24.0
1980-11-15 15:10:22.890 ,2,1,0.,24.0,0.,24.0,1.,24.0,0.,24.0
1980-11-15 15:10:46.890 ,2,0,0.,24.0,0.,24.0,1.,24.0,0.,24.0
1980-11-15 15:11:10.890 ,1,1,1.,24.0,0.,24.0,0.,24.0,0.,24.0
1980-11-15 15:11:34.890 ,1,0,0.,24.0,0.,24.0,0.,24.0,0.,24.0
1980-11-15 15:11:58.890 ,0,1,0.,24.0,0.,24.0,2.,24.0,0.,24.0
1980-11-15 15:12:22.890 ,0,0,0.,24.0,0.,24.0,1.,24.0,0.,24.0
1980-11-15 15:12:46.890 ,0,1,0.,24.0,0.,24.0,0.,24.0,0.,24.0
1980-11-15 15:13:10.890 ,0,0,0.,24.0,0.,24.0,1.,24.0,0.,24.0
1980-11-15 15:13:34.890 ,1,1,0.,24.0,0.,24.0,1.,24.0,0.,24.0
1980-11-15 15:13:58.890 ,1,0,0.,24.0,0.,24.0,1.,24.0,0.,24.0
1980-11-15 15:14:22.890 ,2,1,0.,24.0,0.,24.0,0.,24.0,0.,24.0
1980-11-15 15:14:46.890 ,2,0,0.,24.0,0.,24.0,1.,24.0,0.,24.0
1980-11-15 15:15:10.890 ,3,1,0.,24.0,0.,24.0,2.,24.0,0.,24.0
1980-11-15 15:15:34.890 ,3,0,0.,24.0,0.,24.0,0.,24.0,0.,24.0
1980-11-15 15:15:58.890 ,4,1,0.,24.0,0.,24.0,0.,24.0,0.,24.0
1980-11-15 15:16:22.890 ,4,0,0.,24.0,0.,24.0,1.,24.0,0.,24.0
1980-11-15 15:16:46.890 ,5,1,0.,24.0,0.,24.0,2.,24.0,0.,24.0
1980-11-15 15:17:10.890 ,5,0,0.,24.0,0.,24.0,0.,24.0,0.,24.0
1980-11-15 15:17:34.890 ,6,1,0.,24.0,0.,24.0,1.,24.0,0.,24.0
1980-11-15 15:17:58.890 ,6,0,0.,24.0,0.,24.0,0.,24.0,0.,24.0
1980-11-15 15:18:22.890 ,7,1,3.,24.0,0.,24.0,0.,24.0,0.,24.0
1980-11-15 15:18:46.890 ,7,0,5.,24.0,0.,24.0,0.,24.0,0.,24.0
1980-11-15 15:19:10.890 ,7,1,8.,24.0,0.,24.0,1.,24.0,0.,24.0
1980-11-15 15:19:34.890 ,7,0,9.,24.0,0.,24.0,0.,24.0,0.,24.0
1980-11-15 15:19:58.890 ,6,1,4.,24.0,0.,24.0,0.,24.0,0.,24.0
1980-11-15 15:20:22.890 ,6,0,0.,24.0,0.,24.0,2.,24.0,0.,24.0
1980-11-15 15:20:46.890 ,5,1,0.,24.0,0.,24.0,0.,24.0,0.,24.0
1980-11-15 15:21:10.890 ,5,0,0.,24.0,0.,24.0,0.,24.0,0.,24.0
1980-11-15 15:21:34.890 ,4,1,0.,24.0,0.,24.0,2.,24.0,0.,24.0
1980-11-15 15:21:58.890 ,4,0,0.,24.0,0.,24.0,1.,24.0,0.,24.0
1980-11-15 15:22:22.890 ,3,1,0.,24.0,0.,24.0,0.,24.0,0.,24.0
1980-11-15 15:22:46.890 ,3,0,0.,24.0,0.,24.0,1.,24.0,0.,24.0
1980-11-15 15:23:10.890 ,2,1,0.,24.0,0.,24.0,0.,24.0,0.,24.0
1980-11-15 15:23:34.890 ,2,0,0.,24.0,0.,24.0,0.,24.0,0.,24.0
1980-11-15 15:23:58.890 ,1,1,0.,24.0,0.,24.0,0.,24.0,0.,24.0
1980-11-15 15:24:22.890 ,1,0,0.,24.0,0.,24.0,1.,24.0,0.,24.0
1980-11-15 15:24:46.890 ,0,1,0.,24.0,0.,24.0,0.,24.0,0.,24.0
1980-11-15 15:25:10.890 ,0,0,0.,24.0,0.,24.0,0.,24.0,0.,24.0
1980-11-15 15:25:34.890 ,0,1,0.,24.0,0.,24.0,1.,24.0,0.,24.0
1980-11-15 15:25:58.890 ,0,0,0.,24.0,0.,24.0,0.,24.0,0.,24.0
1980-11-15 15:26:22.890 ,1,1,0.,24.0,0.,24.0,0.,24.0,0.,24.0
1980-11-15 15:26:46.890 ,1,0,0.,24.0,0.,24.0,1.,24.0,0.,24.0
1980-11-15 15:27:10.890 ,2,1,0.,24.0,0.,24.0,0.,24.0,0.,24.0
1980-11-15 15:27:34.890 ,2,0,0.,24.0,0.,24.0,0.,24.0,0.,24.0
1980-11-15 15:27:58.890 ,3,1,0.,24.0,0.,24.0,1.,24.0,0.,24.0
1980-11-15 15:28:22.890 ,3,0,0.,24.0,0.,24.0,0.,24.0,0.,24.0
1980-11-15 15:28:46.890 ,4,1,0.,24.0,0.,24.0,0.,24.0,0.,24.0
1980-11-15 15:29:10.890 ,4,0,0.,24.0,0.,24.0,0.,24.0,0.,24.0
1980-11-15 15:29:34.890 ,5,1,0.,24.0,0.,24.0,0.,24.0,0.,24.0
1980-11-15 15:29:58.890 ,5,0,0.,24.0,0.,24.0,0.,24.0,0.,24.0
1980-11-15 15:30:22.890 ,6,1,0.,24.0,0.,24.0,1.,24.0,0.,24.0
1980-11-15 15:30:46.890 ,6,0,0.,24.0,0.,24.0,0.,24.0,0.,24.0
1980-11-15 15:31:10.890 ,7,1,2.,24.0,0.,24.0,1.,24.0,0.,24.0
1980-11-15 15:31:34.890 ,7,0,20.,24.0,0.,24.0,1.,24.0,0.,24.0
1980-11-15 15:31:58.890 ,7,1,9.,24.0,0.,24.0,0.,24.0,0.,24.0
1980-11-15 15:32:22.890 ,7,0,9.,24.0,0.,24.0,1.,24.0,0.,24.0
1980-11-15 15:32:46.890 ,6,1,6.,24.0,0.,24.0,0.,24.0,0.,24.0
1980-11-15 15:33:10.890 ,6,0,0.,24.0,0.,24.0,0.,24.0,0.,24.0
1980-11-15 15:33:34.890 ,5,1,0.,24.0,0.,24.0,0.,24.0,0.,24.0
1980-11-15 15:33:58.890 ,5,0,0.,24.0,0.,24.0,0.,24.0,0.,24.0
1980-11-15 15:34:22.890 ,4,1,0.,24.0,0.,24.0,1.,24.0,0.,24.0
1980-11-15 15:34:46.890 ,4,0,0.,24.0,0.,24.0,0.,24.0,0.,24.0
1980-11-15 15:35:10.890 ,3,1,0.,24.0,0.,24.0,1.,24.0,0.,24.0
1980-11-15 15:35:34.890 ,3,0,0.,24.0,0.,24.0,0.,24.0,0.,24.0
1980-11-15 15:35:58.890 ,2,1,0.,24.0,0.,24.0,1.,24.0,0.,24.0
1980-11-15 15:36:22.890 ,2,0,0.,24.0,0.,24.0,1.,24.0,0.,24.0
1980-11-15 15:36:46.890 ,1,1,0.,24.0,0.,24.0,0.,24.0,0.,24.0
1980-11-15 15:37:10.890 ,0,0,0.,24.0,0.,24.0,0.,24.0,0.,24.0
1980-11-15 15:38:25.290 ,0,0,0.,24.0,0.,24.0,0.,24.0,0.,24.0
1980-11-15 15:38:46.890 ,0,0,,0,,0,,0,,0
1980-11-15 15:51:49.290 ,0,0,,0,,0,,0,,0
1980-11-15 15:51:58.890 ,1,1,0.,24.0,0.,24.0,0.,24.0,0.,24.0
1980-11-15 15:52:22.890 ,1,0,0.,24.0,0.,24.0,0.,24.0,0.,24.0
1980-11-15 15:52:46.890 ,2,1,0.,24.0,0.,24.0,0.,24.0,0.,24.0
1980-11-15 15:53:10.890 ,2,0,0.,24.0,0.,24.0,0.,24.0,0.,24.0
1980-11-15 15:53:34.890 ,3,1,0.,24.0,0.,24.0,0.,24.0,0.,24.0
1980-11-15 15:53:58.890 ,3,0,0.,24.0,0.,24.0,0.,24.0,0.,24.0
1980-11-15 15:54:22.890 ,4,1,0.,24.0,0.,24.0,0.,24.0,0.,24.0
1980-11-15 15:54:46.890 ,4,0,0.,24.0,0.,24.0,1.,24.0,0.,24.0
1980-11-15 15:55:10.890 ,5,1,0.,24.0,0.,24.0,0.,24.0,0.,24.0
1980-11-15 15:55:34.890 ,5,0,0.,24.0,0.,24.0,1.,24.0,0.,24.0
1980-11-15 15:55:58.890 ,6,1,0.,24.0,0.,24.0,0.,24.0,0.,24.0
1980-11-15 15:56:22.890 ,6,0,0.,24.0,0.,24.0,0.,24.0,0.,24.0
1980-11-15 15:56:46.890 ,7,1,3.,24.0,0.,24.0,0.,24.0,0.,24.0
1980-11-15 15:57:10.890 ,7,0,8.,24.0,0.,24.0,0.,24.0,0.,24.0
1980-11-15 15:57:34.890 ,7,1,12.,24.0,0.,24.0,0.,24.0,0.,24.0
1980-11-15 15:57:58.890 ,7,0,8.,24.0,0.,24.0,0.,24.0,0.,24.0
1980-11-15 15:58:22.890 ,6,1,9.,24.0,0.,24.0,0.,24.0,0.,24.0
1980-11-15 15:58:46.890 ,6,0,0.,24.0,0.,24.0,0.,24.0,0.,24.0
1980-11-15 15:59:10.890 ,5,1,0.,24.0,0.,24.0,0.,24.0,0.,24.0
1980-11-15 15:59:34.890 ,5,0,0.,24.0,0.,24.0,1.,24.0,0.,24.0
1980-11-15 15:59:58.890 ,4,1,0.,24.0,0.,24.0,0.,24.0,0.,24.0
1980-11-15 16:00:22.890 ,0,0,0.,24.0,0.,24.0,0.,24.0,0.,24.0
1980-11-15 16:03:28.290 ,0,0,,0,,0,,0,,0
1980-11-15 16:03:34.890 ,0,0,0.,24.0,0.,24.0,0.,24.0,0.,24.0
1980-11-15 16:03:58.890 ,0,1,0.,24.0,0.,24.0,1.,24.0,0.,24.0
1980-11-15 16:04:22.890 ,0,0,0.,24.0,0.,24.0,1.,24.0,0.,24.0
1980-11-15 16:04:46.890 ,1,1,0.,24.0,0.,24.0,1.,24.0,0.,24.0
1980-11-15 16:05:10.890 ,1,0,0.,24.0,0.,24.0,0.,24.0,0.,24.0
1980-11-15 16:05:34.890 ,2,1,0.,24.0,0.,24.0,1.,24.0,0.,24.0
1980-11-15 16:05:58.890 ,2,0,0.,24.0,0.,24.0,0.,24.0,0.,24.0
1980-11-15 16:06:22.890 ,3,1,0.,24.0,0.,24.0,0.,24.0,0.,24.0
1980-11-15 16:06:46.890 ,3,0,0.,24.0,0.,24.0,1.,24.0,0.,24.0
1980-11-15 16:07:10.890 ,4,1,0.,24.0,0.,24.0,0.,24.0,0.,24.0
1980-11-15 16:07:34.890 ,4,0,0.,24.0,0.,24.0,2.,24.0,0.,24.0
1980-11-15 16:07:58.890 ,5,1,0.,24.0,0.,24.0,0.,24.0,0.,24.0
1980-11-15 16:08:22.890 ,5,0,0.,24.0,0.,24.0,0.,24.0,0.,24.0
1980-11-15 16:08:46.890 ,6,1,0.,24.0,0.,24.0,0.,24.0,0.,24.0
1980-11-15 16:09:10.890 ,6,0,0.,24.0,0.,24.0,0.,24.0,0.,24.0
1980-11-15 16:09:34.890 ,7,1,1.,24.0,0.,24.0,0.,24.0,0.,24.0
1980-11-15 16:09:58.890 ,7,0,16.,24.0,0.,24.0,0.,24.0,0.,24.0
1980-11-15 16:10:22.890 ,7,1,8.,24.0,0.,24.0,0.,24.0,0.,24.0
1980-11-15 16:10:46.890 ,7,0,11.,24.0,0.,24.0,1.,24.0,0.,24.0
1980-11-15 16:11:10.890 ,6,1,11.,24.0,0.,24.0,0.,24.0,0.,24.0
1980-11-15 16:11:34.890 ,6,0,0.,24.0,0.,24.0,0.,24.0,0.,24.0
1980-11-15 16:11:58.890 ,5,1,0.,24.0,0.,24.0,0.,24.0,0.,24.0
1980-11-15 16:12:22.890 ,5,0,0.,24.0,0.,24.0,1.,24.0,0.,24.0
1980-11-15 16:12:46.890 ,4,1,0.,24.0,0.,24.0,1.,24.0,0.,24.0
1980-11-15 16:13:10.890 ,4,0,0.,24.0,0.,24.0,0.,24.0,0.,24.0
1980-11-15 16:13:34.890 ,3,1,0.,24.0,0.,24.0,0.,24.0,0.,24.0
1980-11-15 16:13:58.890 ,3,0,0.,24.0,0.,24.0,0.,24.0,0.,24.0
1980-11-15 16:15:10.890 ,0,0,0.,24.0,0.,24.0,0.,24.0,0.,24.0
1980-11-15 16:15:34.890 ,0,0,0.,24.0,0.,24.0,0.,24.0,0.,24.0
1980-11-15 16:15:58.890 ,0,1,0.,24.0,0.,24.0,2.,24.0,0.,24.0
1980-11-15 16:16:22.890 ,0,0,0.,24.0,0.,24.0,0.,24.0,0.,24.0
1980-11-15 16:16:46.890 ,0,1,0.,24.0,0.,24.0,0.,24.0,0.,24.0
1980-11-15 16:17:10.890 ,0,0,0.,24.0,0.,24.0,1.,24.0,0.,24.0
1980-11-15 16:17:34.890 ,1,1,0.,24.0,0.,24.0,1.,24.0,0.,24.0
1980-11-15 16:17:58.890 ,1,0,0.,24.0,0.,24.0,2.,24.0,0.,24.0
1980-11-15 16:18:22.890 ,2,1,0.,24.0,0.,24.0,0.,24.0,0.,24.0
1980-11-15 16:18:46.890 ,2,0,0.,24.0,0.,24.0,0.,24.0,0.,24.0
1980-11-15 16:19:10.890 ,3,1,1.,24.0,0.,24.0,0.,24.0,0.,24.0
1980-11-15 16:19:34.890 ,3,0,0.,24.0,0.,24.0,0.,24.0,0.,24.0
1980-11-15 16:19:58.890 ,4,1,0.,24.0,0.,24.0,0.,24.0,0.,24.0
1980-11-15 16:20:22.890 ,4,0,0.,24.0,0.,24.0,1.,24.0,0.,24.0
1980-11-15 16:20:46.890 ,5,1,0.,24.0,0.,24.0,0.,24.0,0.,24.0
1980-11-15 16:21:10.890 ,5,0,0.,24.0,0.,24.0,2.,24.0,0.,24.0
1980-11-15 16:21:34.890 ,6,1,0.,24.0,0.,24.0,0.,24.0,0.,24.0
1980-11-15 16:21:58.890 ,6,0,0.,24.0,0.,24.0,1.,24.0,0.,24.0
1980-11-15 16:22:22.890 ,7,1,2.,24.0,0.,24.0,0.,24.0,0.,24.0
1980-11-15 16:22:46.890 ,7,0,8.,24.0,0.,24.0,1.,24.0,0.,24.0
1980-11-15 16:23:10.890 ,7,1,16.,24.0,0.,24.0,0.,24.0,0.,24.0
1980-11-15 16:23:34.890 ,7,0,6.,24.0,0.,24.0,1.,24.0,0.,24.0
1980-11-15 16:23:58.890 ,6,1,10.,24.0,0.,24.0,0.,24.0,0.,24.0
1980-11-15 16:24:22.890 ,6,0,0.,24.0,0.,24.0,0.,24.0,0.,24.0
1980-11-15 16:24:46.890 ,5,1,0.,24.0,0.,24.0,1.,24.0,0.,24.0
1980-11-15 16:25:10.890 ,5,0,0.,24.0,0.,24.0,1.,24.0,0.,24.0
1980-11-15 16:25:34.890 ,4,1,0.,24.0,0.,24.0,1.,24.0,0.,24.0
1980-11-15 16:25:58.890 ,4,0,0.,24.0,0.,24.0,1.,24.0,0.,24.0
1980-11-15 16:26:22.890 ,3,1,0.,24.0,0.,24.0,1.,24.0,0.,24.0
1980-11-15 16:26:46.890 ,3,0,0.,24.0,0.,24.0,0.,24.0,0.,24.0
1980-11-15 16:27:10.890 ,2,1,0.,24.0,0.,24.0,1.,24.0,0.,24.0
1980-11-15 16:27:34.890 ,2,0,0.,24.0,0.,24.0,1.,24.0,0.,24.0
1980-11-15 16:27:58.890 ,1,1,0.,24.0,0.,24.0,0.,24.0,0.,24.0
1980-11-15 16:28:22.890 ,1,0,0.,24.0,0.,24.0,0.,24.0,0.,24.0
1980-11-15 16:28:46.890 ,0,1,0.,24.0,0.,24.0,0.,24.0,0.,24.0
1980-11-15 16:29:10.890 ,0,0,0.,24.0,0.,24.0,1.,24.0,0.,24.0
1980-11-15 16:29:34.890 ,0,1,0.,24.0,0.,24.0,2.,24.0,0.,24.0
1980-11-15 16:29:58.890 ,0,0,0.,24.0,0.,24.0,0.,24.0,0.,24.0
1980-11-15 16:30:22.890 ,1,1,0.,24.0,0.,24.0,0.,24.0,0.,24.0
1980-11-15 16:30:46.890 ,1,0,0.,24.0,0.,24.0,1.,24.0,0.,24.0
1980-11-15 16:31:10.890 ,2,1,0.,24.0,0.,24.0,0.,24.0,0.,24.0
1980-11-15 16:31:34.890 ,2,0,0.,24.0,0.,24.0,0.,24.0,0.,24.0
1980-11-15 16:31:58.890 ,3,1,0.,24.0,1.,24.0,0.,24.0,0.,24.0
1980-11-15 16:32:22.890 ,3,0,0.,24.0,0.,24.0,0.,24.0,0.,24.0
1980-11-15 16:32:46.890 ,4,1,0.,24.0,0.,24.0,1.,24.0,0.,24.0
1980-11-15 16:33:10.890 ,4,0,0.,24.0,0.,24.0,2.,24.0,0.,24.0
1980-11-15 16:33:34.890 ,5,1,0.,24.0,0.,24.0,0.,24.0,0.,24.0
1980-11-15 16:33:58.890 ,5,0,0.,24.0,0.,24.0,1.,24.0,0.,24.0
1980-11-15 16:34:22.890 ,6,1,0.,24.0,0.,24.0,0.,24.0,0.,24.0
1980-11-15 16:34:46.890 ,6,0,0.,24.0,0.,24.0,0.,24.0,0.,24.0
1980-11-15 16:35:10.890 ,7,1,1.,24.0,0.,24.0,0.,24.0,0.,24.0
1980-11-15 16:35:34.890 ,0,0,8.,24.0,0.,24.0,0.,24.0,0.,24.0
1980-11-15 16:35:58.890 ,7,1,13.,24.0,0.,24.0,0.,24.0,0.,24.0
1980-11-15 16:36:22.890 ,7,0,7.,24.0,0.,24.0,1.,24.0,0.,24.0
1980-11-15 16:36:46.890 ,6,1,8.,24.0,0.,24.0,0.,24.0,0.,24.0
1980-11-15 16:37:10.890 ,6,0,0.,24.0,0.,24.0,1.,24.0,0.,24.0
1980-11-15 16:37:34.890 ,5,1,0.,24.0,0.,24.0,1.,24.0,0.,24.0
1980-11-15 16:37:58.890 ,5,0,0.,24.0,0.,24.0,2.,24.0,0.,24.0
1980-11-15 16:38:22.890 ,4,1,0.,24.0,0.,24.0,0.,24.0,0.,24.0
1980-11-15 16:38:46.890 ,4,0,0.,24.0,0.,24.0,0.,24.0,0.,24.0
1980-11-15 16:39:10.890 ,3,1,0.,24.0,0.,24.0,1.,24.0,0.,24.0
1980-11-15 16:39:34.890 ,3,0,0.,24.0,0.,24.0,0.,24.0,0.,24.0
1980-11-15 16:39:58.890 ,2,1,0.,24.0,0.,24.0,0.,24.0,0.,24.0
1980-11-15 16:40:22.890 ,2,0,0.,24.0,0.,24.0,2.,24.0,0.,24.0
1980-11-15 16:40:46.890 ,1,1,1.,24.0,0.,24.0,0.,24.0,0.,24.0
1980-11-15 16:41:10.890 ,1,0,0.,24.0,0.,24.0,0.,24.0,0.,24.0
1980-11-15 16:41:34.890 ,0,1,0.,24.0,0.,24.0,0.,24.0,0.,24.0
1980-11-15 16:41:58.890 ,0,0,0.,24.0,0.,24.0,0.,24.0,0.,24.0
1980-11-15 16:42:22.890 ,0,1,0.,24.0,0.,24.0,0.,24.0,0.,24.0
1980-11-15 16:42:46.890 ,0,0,0.,24.0,0.,24.0,0.,24.0,0.,24.0
1980-11-15 16:43:10.890 ,1,1,0.,24.0,0.,24.0,2.,24.0,0.,24.0
1980-11-15 16:43:34.890 ,1,0,0.,24.0,0.,24.0,0.,24.0,0.,24.0
1980-11-15 16:43:58.890 ,2,1,0.,24.0,0.,24.0,0.,24.0,0.,24.0
1980-11-15 16:44:22.890 ,2,0,0.,24.0,0.,24.0,1.,24.0,0.,24.0
1980-11-15 16:44:46.890 ,3,1,0.,24.0,0.,24.0,0.,24.0,0.,24.0
1980-11-15 16:45:10.890 ,3,0,0.,24.0,0.,24.0,0.,24.0,0.,24.0
1980-11-15 16:45:34.890 ,4,1,1.,24.0,0.,24.0,1.,24.0,0.,24.0
1980-11-15 16:45:58.890 ,4,0,0.,24.0,0.,24.0,0.,24.0,0.,24.0
1980-11-15 16:46:22.890 ,5,1,0.,24.0,0.,24.0,0.,24.0,0.,24.0
1980-11-15 16:46:46.890 ,5,0,0.,24.0,0.,24.0,0.,24.0,0.,24.0
1980-11-15 16:47:10.890 ,6,1,0.,24.0,0.,24.0,0.,24.0,0.,24.0
1980-11-15 16:47:34.890 ,6,0,0.,24.0,0.,24.0,0.,24.0,0.,24.0
1980-11-15 16:47:58.890 ,7,1,3.,24.0,0.,24.0,1.,24.0,0.,24.0
1980-11-15 16:48:22.890 ,7,0,13.,24.0,0.,24.0,0.,24.0,0.,24.0
1980-11-15 16:48:46.890 ,7,1,13.,24.0,0.,24.0,0.,24.0,0.,24.0
1980-11-15 16:49:10.890 ,7,0,8.,24.0,0.,24.0,0.,24.0,0.,24.0
1980-11-15 16:49:34.890 ,6,1,8.,24.0,0.,24.0,1.,24.0,0.,24.0
1980-11-15 16:49:58.890 ,6,0,0.,24.0,0.,24.0,2.,24.0,0.,24.0
1980-11-15 16:50:22.890 ,5,1,0.,24.0,0.,24.0,0.,24.0,0.,24.0
1980-11-15 16:50:46.890 ,5,0,0.,24.0,0.,24.0,0.,24.0,0.,24.0
1980-11-15 16:51:10.890 ,4,1,0.,24.0,0.,24.0,0.,24.0,0.,24.0
1980-11-15 16:51:34.890 ,4,0,0.,24.0,0.,24.0,0.,24.0,0.,24.0
1980-11-15 16:51:58.890 ,3,1,0.,24.0,0.,24.0,2.,24.0,0.,24.0
1980-11-15 16:52:22.890 ,3,0,0.,24.0,0.,24.0,0.,24.0,0.,24.0
1980-11-15 16:52:46.890 ,2,1,0.,24.0,0.,24.0,0.,24.0,0.,24.0
1980-11-15 16:53:10.890 ,2,0,0.,24.0,0.,24.0,0.,24.0,0.,24.0
1980-11-15 16:53:34.890 ,1,1,0.,24.0,0.,24.0,0.,24.0,0.,24.0
1980-11-15 16:53:58.890 ,1,0,0.,24.0,0.,24.0,0.,24.0,0.,24.0
1980-11-15 16:54:22.890 ,0,1,1.,24.0,0.,24.0,3.,24.0,0.,24.0
1980-11-15 16:54:46.890 ,0,0,0.,24.0,0.,24.0,0.,24.0,0.,24.0
1980-11-15 16:55:10.890 ,0,1,0.,24.0,0.,24.0,0.,24.0,0.,24.0
1980-11-15 16:55:34.890 ,0,0,0.,24.0,0.,24.0,0.,24.0,0.,24.0
1980-11-15 16:55:58.890 ,1,1,0.,24.0,0.,24.0,0.,24.0,0.,24.0
1980-11-15 16:56:22.890 ,1,0,0.,24.0,0.,24.0,0.,24.0,0.,24.0
1980-11-15 16:56:46.890 ,2,1,0.,24.0,0.,24.0,0.,24.0,0.,24.0
1980-11-15 16:57:10.890 ,2,0,0.,24.0,0.,24.0,1.,24.0,0.,24.0
1980-11-15 16:57:34.890 ,3,1,0.,24.0,0.,24.0,0.,24.0,0.,24.0
1980-11-15 16:57:58.890 ,3,0,0.,24.0,0.,24.0,1.,24.0,0.,24.0
1980-11-15 16:58:22.890 ,4,1,0.,24.0,0.,24.0,1.,24.0,0.,24.0
1980-11-15 16:58:46.890 ,4,0,0.,24.0,0.,24.0,1.,24.0,0.,24.0
1980-11-15 16:59:10.890 ,5,1,0.,24.0,1.,24.0,0.,24.0,0.,24.0
1980-11-15 16:59:34.890 ,5,0,0.,24.0,0.,24.0,1.,24.0,0.,24.0
1980-11-15 16:59:58.890 ,6,1,0.,24.0,0.,24.0,1.,24.0,0.,24.0
1980-11-15 17:00:22.890 ,6,0,0.,24.0,0.,24.0,1.,24.0,0.,24.0
1980-11-15 17:00:46.890 ,7,1,2.,24.0,0.,24.0,0.,24.0,0.,24.0
1980-11-15 17:01:10.890 ,7,0,15.,24.0,0.,24.0,2.,24.0,0.,24.0
1980-11-15 17:01:34.890 ,7,1,10.,24.0,1.,24.0,0.,24.0,0.,24.0
1980-11-15 17:01:58.890 ,7,0,16.,24.0,0.,24.0,0.,24.0,0.,24.0
1980-11-15 17:02:22.890 ,6,1,7.,24.0,0.,24.0,0.,24.0,0.,24.0
1980-11-15 17:02:46.890 ,6,0,0.,24.0,0.,24.0,0.,24.0,0.,24.0
1980-11-15 17:03:10.890 ,5,1,0.,24.0,0.,24.0,1.,24.0,0.,24.0
1980-11-15 17:03:34.890 ,5,0,0.,24.0,0.,24.0,0.,24.0,0.,24.0
1980-11-15 17:03:58.890 ,4,1,0.,24.0,0.,24.0,0.,24.0,0.,24.0
1980-11-15 17:04:22.890 ,4,0,0.,24.0,0.,24.0,0.,24.0,0.,24.0
1980-11-15 17:04:46.890 ,3,1,0.,24.0,0.,24.0,0.,24.0,0.,24.0
1980-11-15 17:05:10.890 ,3,0,0.,24.0,0.,24.0,0.,24.0,0.,24.0
1980-11-15 17:05:34.890 ,2,1,0.,24.0,0.,24.0,0.,24.0,0.,24.0
1980-11-15 17:05:58.890 ,2,0,0.,24.0,0.,24.0,1.,24.0,0.,24.0
1980-11-15 17:06:22.890 ,1,1,0.,24.0,0.,24.0,1.,24.0,0.,24.0
1980-11-15 17:06:46.890 ,1,0,0.,24.0,0.,24.0,0.,24.0,0.,24.0
1980-11-15 17:07:10.890 ,0,1,0.,24.0,0.,24.0,0.,24.0,0.,24.0
1980-11-15 17:07:34.890 ,0,0,0.,24.0,0.,24.0,1.,24.0,0.,24.0
1980-11-15 17:07:58.890 ,0,1,0.,24.0,0.,24.0,0.,24.0,0.,24.0
1980-11-15 17:08:22.890 ,0,0,0.,24.0,0.,24.0,0.,24.0,0.,24.0
1980-11-15 17:08:46.890 ,1,1,0.,24.0,0.,24.0,0.,24.0,0.,24.0
1980-11-15 17:09:10.890 ,1,0,0.,24.0,0.,24.0,0.,24.0,0.,24.0
1980-11-15 17:09:34.890 ,2,1,0.,24.0,0.,24.0,0.,24.0,0.,24.0
1980-11-15 17:09:58.890 ,2,0,0.,24.0,0.,24.0,0.,24.0,0.,24.0
1980-11-15 17:10:22.890 ,3,1,0.,24.0,0.,24.0,1.,24.0,0.,24.0
1980-11-15 17:10:46.890 ,3,0,0.,24.0,0.,24.0,0.,24.0,0.,24.0
1980-11-15 17:11:10.890 ,4,1,0.,24.0,0.,24.0,0.,24.0,0.,24.0
1980-11-15 17:11:34.890 ,4,0,0.,24.0,0.,24.0,1.,24.0,0.,24.0
1980-11-15 17:11:58.890 ,5,1,0.,24.0,0.,24.0,2.,24.0,0.,24.0
1980-11-15 17:12:22.890 ,5,0,0.,24.0,0.,24.0,1.,24.0,0.,24.0
1980-11-15 17:12:46.890 ,6,1,0.,24.0,0.,24.0,0.,24.0,0.,24.0
1980-11-15 17:13:10.890 ,6,0,0.,24.0,0.,24.0,0.,24.0,0.,24.0
1980-11-15 17:13:34.890 ,7,1,3.,24.0,0.,24.0,0.,24.0,0.,24.0
1980-11-15 17:13:58.890 ,7,0,11.,24.0,0.,24.0,0.,24.0,0.,24.0
1980-11-15 17:14:22.890 ,7,1,4.,24.0,0.,24.0,0.,24.0,0.,24.0
1980-11-15 17:14:46.890 ,7,0,7.,24.0,0.,24.0,2.,24.0,0.,24.0
1980-11-15 17:15:10.890 ,6,1,7.,24.0,0.,24.0,0.,24.0,0.,24.0
1980-11-15 17:15:34.890 ,6,0,0.,24.0,0.,24.0,1.,24.0,0.,24.0
1980-11-15 17:15:58.890 ,5,1,0.,24.0,0.,24.0,1.,24.0,0.,24.0
1980-11-15 17:16:22.890 ,5,0,0.,24.0,0.,24.0,0.,24.0,0.,24.0
1980-11-15 17:16:46.890 ,4,1,0.,24.0,0.,24.0,0.,24.0,0.,24.0
1980-11-15 17:17:10.890 ,4,0,0.,24.0,0.,24.0,0.,24.0,0.,24.0
1980-11-15 17:17:34.890 ,3,1,0.,24.0,0.,24.0,0.,24.0,0.,24.0
1980-11-15 17:17:58.890 ,3,0,0.,24.0,0.,24.0,1.,24.0,0.,24.0
1980-11-15 17:18:22.890 ,2,1,0.,24.0,0.,24.0,1.,24.0,0.,24.0
1980-11-15 17:18:46.890 ,2,0,0.,24.0,0.,24.0,1.,24.0,0.,24.0
1980-11-15 17:19:10.890 ,1,1,0.,24.0,0.,24.0,0.,24.0,0.,24.0
1980-11-15 17:19:34.890 ,1,0,0.,24.0,0.,24.0,0.,24.0,0.,24.0
1980-11-15 17:19:58.890 ,0,1,0.,24.0,0.,24.0,0.,24.0,0.,24.0
1980-11-15 17:20:22.890 ,0,0,0.,24.0,0.,24.0,0.,24.0,0.,24.0
1980-11-15 17:20:46.890 ,0,1,0.,24.0,0.,24.0,0.,24.0,0.,24.0
1980-11-15 17:21:10.890 ,0,0,0.,24.0,0.,24.0,0.,24.0,0.,24.0
1980-11-15 17:21:34.890 ,1,1,0.,24.0,0.,24.0,0.,24.0,0.,24.0
1980-11-15 17:21:58.890 ,1,0,0.,24.0,0.,24.0,0.,24.0,0.,24.0
1980-11-15 17:22:22.890 ,2,1,0.,24.0,0.,24.0,1.,24.0,0.,24.0
1980-11-15 17:22:46.890 ,2,0,0.,24.0,0.,24.0,1.,24.0,0.,24.0
1980-11-15 17:23:10.890 ,3,1,0.,24.0,0.,24.0,0.,24.0,0.,24.0
1980-11-15 17:23:34.890 ,3,0,0.,24.0,0.,24.0,0.,24.0,0.,24.0
1980-11-15 17:23:58.890 ,4,1,0.,24.0,0.,24.0,1.,24.0,0.,24.0
1980-11-15 17:24:22.890 ,4,0,0.,24.0,0.,24.0,1.,24.0,0.,24.0
1980-11-15 17:24:46.890 ,5,1,0.,24.0,0.,24.0,0.,24.0,0.,24.0
1980-11-15 17:25:10.890 ,5,0,0.,24.0,0.,24.0,1.,24.0,0.,24.0
1980-11-15 17:25:34.890 ,6,1,0.,24.0,0.,24.0,0.,24.0,0.,24.0
1980-11-15 17:25:58.890 ,6,0,1.,24.0,0.,24.0,0.,24.0,0.,24.0
1980-11-15 17:26:22.890 ,7,1,4.,24.0,0.,24.0,0.,24.0,0.,24.0
1980-11-15 17:26:46.890 ,7,0,12.,24.0,0.,24.0,0.,24.0,0.,24.0
1980-11-15 17:27:10.890 ,7,1,8.,24.0,0.,24.0,2.,24.0,0.,24.0
1980-11-15 17:27:34.890 ,7,0,12.,24.0,0.,24.0,0.,24.0,0.,24.0
1980-11-15 17:27:58.890 ,6,1,5.,24.0,0.,24.0,2.,24.0,0.,24.0
1980-11-15 17:28:22.890 ,6,0,0.,24.0,0.,24.0,0.,24.0,0.,24.0
1980-11-15 17:28:46.890 ,5,1,0.,24.0,0.,24.0,0.,24.0,0.,24.0
1980-11-15 17:29:10.890 ,5,0,0.,24.0,1.,24.0,0.,24.0,0.,24.0
1980-11-15 17:29:34.890 ,4,1,0.,24.0,0.,24.0,0.,24.0,0.,24.0
1980-11-15 17:29:58.890 ,4,0,0.,24.0,0.,24.0,0.,24.0,0.,24.0
1980-11-15 17:30:22.890 ,3,1,0.,24.0,0.,24.0,0.,24.0,0.,24.0
1980-11-15 17:30:46.890 ,3,0,0.,24.0,0.,24.0,0.,24.0,0.,24.0
1980-11-15 17:31:10.890 ,2,1,0.,24.0,0.,24.0,1.,24.0,0.,24.0
1980-11-15 17:31:34.890 ,2,0,0.,24.0,0.,24.0,2.,24.0,0.,24.0
1980-11-15 17:31:58.890 ,1,1,0.,24.0,0.,24.0,1.,24.0,0.,24.0
1980-11-15 17:32:22.890 ,1,0,0.,24.0,0.,24.0,1.,24.0,0.,24.0
1980-11-15 17:32:46.890 ,0,1,0.,24.0,0.,24.0,1.,24.0,0.,24.0
1980-11-15 17:33:10.890 ,0,0,0.,24.0,0.,24.0,0.,24.0,0.,24.0
1980-11-15 17:33:34.890 ,0,1,0.,24.0,0.,24.0,1.,24.0,0.,24.0
1980-11-15 17:33:58.890 ,0,0,0.,24.0,0.,24.0,0.,24.0,0.,24.0
1980-11-15 17:34:22.890 ,1,1,0.,24.0,0.,24.0,1.,24.0,0.,24.0
1980-11-15 17:34:46.890 ,1,0,0.,24.0,0.,24.0,0.,24.0,0.,24.0
1980-11-15 17:35:10.890 ,2,1,0.,24.0,0.,24.0,0.,24.0,0.,24.0
1980-11-15 17:35:34.890 ,2,0,0.,24.0,0.,24.0,1.,24.0,0.,24.0
1980-11-15 17:35:58.890 ,3,1,0.,24.0,0.,24.0,0.,24.0,0.,24.0
1980-11-15 17:36:22.890 ,3,0,0.,24.0,0.,24.0,0.,24.0,0.,24.0
1980-11-15 17:36:46.890 ,4,1,0.,24.0,0.,24.0,0.,24.0,0.,24.0
1980-11-15 17:37:10.890 ,4,0,0.,24.0,0.,24.0,0.,24.0,0.,24.0
1980-11-15 17:37:34.890 ,5,1,0.,24.0,0.,24.0,1.,24.0,0.,24.0
1980-11-15 17:37:58.890 ,5,0,0.,24.0,0.,24.0,0.,24.0,0.,24.0
1980-11-15 17:38:22.890 ,6,1,0.,24.0,0.,24.0,0.,24.0,0.,24.0
1980-11-15 17:38:46.890 ,6,0,0.,24.0,0.,24.0,0.,24.0,0.,24.0
1980-11-15 17:39:10.890 ,7,1,3.,24.0,0.,24.0,0.,24.0,0.,24.0
1980-11-15 17:39:34.890 ,7,0,8.,24.0,0.,24.0,0.,24.0,0.,24.0
1980-11-15 17:39:58.890 ,7,1,12.,24.0,0.,24.0,0.,24.0,0.,24.0
1980-11-15 17:40:22.890 ,7,0,7.,24.0,0.,24.0,1.,24.0,0.,24.0
1980-11-15 17:40:46.890 ,6,1,8.,24.0,0.,24.0,1.,24.0,0.,24.0
1980-11-15 17:41:10.890 ,6,0,0.,24.0,0.,24.0,1.,24.0,0.,24.0
1980-11-15 17:41:34.890 ,5,1,0.,24.0,0.,24.0,0.,24.0,0.,24.0
1980-11-15 17:41:58.890 ,5,0,0.,24.0,0.,24.0,1.,24.0,0.,24.0
1980-11-15 17:42:22.890 ,4,1,0.,24.0,0.,24.0,0.,24.0,0.,24.0
1980-11-15 17:42:46.890 ,4,0,0.,24.0,0.,24.0,0.,24.0,0.,24.0
1980-11-15 17:43:10.890 ,3,1,0.,24.0,0.,24.0,1.,24.0,0.,24.0
1980-11-15 17:43:34.890 ,3,0,0.,24.0,0.,24.0,0.,24.0,0.,24.0
1980-11-15 17:43:58.890 ,2,1,0.,24.0,0.,24.0,0.,24.0,0.,24.0
1980-11-15 17:44:22.890 ,2,0,0.,24.0,0.,24.0,0.,24.0,0.,24.0
1980-11-15 17:45:34.890 ,0,0,0.,24.0,0.,24.0,0.,24.0,0.,24.0
1980-11-15 17:45:58.890 ,0,0,1.,24.0,0.,24.0,1.,24.0,0.,24.0
1980-11-15 17:46:22.890 ,0,1,0.,24.0,0.,24.0,0.,24.0,0.,24.0
1980-11-15 17:46:46.890 ,0,0,0.,24.0,0.,24.0,0.,24.0,0.,24.0
1980-11-15 17:47:10.890 ,1,1,0.,24.0,0.,24.0,1.,24.0,0.,24.0
1980-11-15 17:47:34.890 ,1,0,0.,24.0,0.,24.0,1.,24.0,0.,24.0
1980-11-15 17:47:58.890 ,2,1,0.,24.0,0.,24.0,0.,24.0,0.,24.0
1980-11-15 17:48:22.890 ,2,0,0.,24.0,0.,24.0,0.,24.0,0.,24.0
1980-11-15 17:48:46.890 ,3,1,0.,24.0,0.,24.0,1.,24.0,0.,24.0
1980-11-15 17:49:10.890 ,3,0,0.,24.0,0.,24.0,0.,24.0,0.,24.0
1980-11-15 17:49:34.890 ,4,1,0.,24.0,0.,24.0,0.,24.0,0.,24.0
1980-11-15 17:49:58.890 ,4,0,0.,24.0,0.,24.0,0.,24.0,0.,24.0
1980-11-15 17:50:22.890 ,5,1,1.,24.0,0.,24.0,0.,24.0,0.,24.0
1980-11-15 17:50:46.890 ,5,0,0.,24.0,0.,24.0,0.,24.0,0.,24.0
1980-11-15 17:51:10.890 ,6,1,0.,24.0,0.,24.0,2.,24.0,0.,24.0
1980-11-15 17:51:34.890 ,6,0,0.,24.0,0.,24.0,0.,24.0,0.,24.0